Showing default

HAWK-8A, 59443

Orbit data source: Space-Track

HAWK-8A, 59443 is a payload satellite owned by HawkEye 360 (US) in LEO that was launched on Sun, 07 Apr 2024 UTC via an FALCON 9 launch vehicle from the Air Force Eastern Test Range (AFETR). Payload-class satellites include a variety of spacecraft equipped with specific instruments for various scientific and technological missions. These include communications satellites like Starlink; space stations such as the ISS; scientific satellites like the Hubble; Earth observation satellites from companies like Planet Labs, Umbra, and HawkEye 360; GPS; miniature CubeSats for education and research; and military/defense satellites.

Loading next visibility...
Identifier
59443, 2024-066B
Orbit
LEO
Country
Flag of USUS
Related business
Manufacturer
UTIAS-SFL
Mission
Operational Commercial Sigint
Bus & Motor
HAWK2G, Unknown motor
Mass
31 kg wet, 30 kg dry
Launch date (UTC)
2024-04-07 (2 years ago)
Launch vehicle
FALCON 9
Launch site
Air Force Eastern Test Range (AFETR)
Object type
Payload
Rocket body
Debris
Shape & HBR
Box + 2 Pan, 1.0 m
Radar Cross Section
0.240 m², Medium (>0.1 m² and < 1m²)

Expand to show TLE details & history
Last TLE update: 19 hours ago

TLE from 19 hours ago
0 HAWK-8A
1 59443U 24066B   25293.79628685  .00005078  00000-0  44363-3 0  9998
2 59443  45.5933  73.3371 0004772 227.6436 132.4041 14.97916153 83923
Epoch: 2025-10-20T19:06Z
TLE epoch observation values (Epoch: 2025-10-20T19:06:39.183Z)
Latitude
-0.00002°
Longitude
117.18036°
Altitude
575.638 km
Speed
7.573 km/s
True Right ascension
04h 53m 20s
True Declination
0° 00' 00"
Sunlit
Object was in full shadow at epoch
Visualization orbit readout
Latitude
Unknown
Longitude
Unknown
Altitude
Unknown
Speed
Unknown
Apparent Right ascension
Unknown
Apparent Declination
Unknown
Sunlit
N/A
Visualization observer readout
Local Sidereal Time
09:07:23
Azimuth
Unknown
Elevation
Unknown
Doppler factor
Unknown
Orbital elements
Apogee altitude
578.144 km
Perigee altitude
571.508 km
Semi-major axis
6,952.963 km
Eccentricity
0.00048
Inclination
45.5933°
RAAN
73.3371°
Arg. of periapsis
227.6436°
True anomaly
132.44446°
Mean anomaly
132.4041°
Eccentric anomaly
132.42428°
Mean motion
3.74359 °/min
Orbital period
96.16 mins
BSTAR
0.00044363
Loading maneuver chart data...
Computing Atmospheric mass density...
Loading historical data...
Loading historical data...
Loading historical data...
Loading historical data...
Loading historical data...
Loading historical data...
Loading historical data...

Documentation

Showing up to 5 results
|